When you browse on this site, cookies collect data to enhance your experience and personalize the content and advertising you see.
Visit our Privacy Policy to learn more. By continuing to use the site, you agree to this use of cookies and data.
  • In Romania
  • List of Countries
  • For 7 days
  • Water Temperature
  • Satellite Maps
  • Weather Map
  • Weather Widgets
  • user-avatar
    Login

    Hourly Weather Ísafjörður

    Today, 20 March, Wednesday

    Time Temperature Precipitation Wind Pressure Humidity
    00:00 -9°C° 0.2 mm 15 mps 717 mmHg 81%
    01:00 -9°C° 0.2 mm 15 mps 718 mmHg 82%
    02:00 -11°C° 0.2 mm 16 mps 718 mmHg 81%
    03:00 -11°C° 0.2 mm 16 mps 718 mmHg 79%
    04:00 -11°C° 0.2 mm 17 mps 718 mmHg 78%
    05:00 -12°C° 0.3 mm 17 mps 718 mmHg 78%
    06:00 -12°C° 0.3 mm 17 mps 719 mmHg 78%
    07:00 -12°C° 0.3 mm 17 mps 719 mmHg 77%
    08:00 -12°C° 0.3 mm 17 mps 719 mmHg 78%
    09:00 -13°C° 0.3 mm 16 mps 720 mmHg 78%
    10:00 -13°C° 0.3 mm 16 mps 721 mmHg 78%
    11:00 -13°C° 0.3 mm 17 mps 721 mmHg 77%
    12:00 -14°C° 0.3 mm 18 mps 721 mmHg 75%
    13:00 -14°C° 0.3 mm 19 mps 721 mmHg 74%
    14:00 -14°C° 0.3 mm 19 mps 721 mmHg 74%
    15:00 -14°C° 0.3 mm 19 mps 722 mmHg 74%
    16:00 -15°C° 0.3 mm 19 mps 722 mmHg 75%
    17:00 -15°C° 0.3 mm 19 mps 722 mmHg 75%
    18:00 -15°C° 0.3 mm 19 mps 723 mmHg 76%
    19:00 -15°C° 0.3 mm 18 mps 723 mmHg 77%
    20:00 -15°C° 0.3 mm 18 mps 723 mmHg 77%
    21:00 -15°C° 0.3 mm 18 mps 723 mmHg 78%
    22:00 -15°C° 0.3 mm 18 mps 723 mmHg 78%
    23:00 -15°C° 0.2 mm 18 mps 724 mmHg 76%

    Tomorrow, 21 March, Thursday

    Time Temperature Precipitation Wind Pressure Humidity
    00:00 -15°C° 0.2 mm 17 mps 724 mmHg 75%
    01:00 -14°C° 0.2 mm 16 mps 724 mmHg 73%
    02:00 -13°C° 0.2 mm 15 mps 724 mmHg 76%
    03:00 -13°C° 0.2 mm 14 mps 724 mmHg 80%
    04:00 -12°C° 0.2 mm 12 mps 724 mmHg 83%
    05:00 -11°C° 0.3 mm 11 mps 725 mmHg 86%
    06:00 -10°C° 0.3 mm 10 mps 725 mmHg 89%
    07:00 -10°C° 0.3 mm 8 mps 725 mmHg 92%
    08:00 -10°C° 0.5 mm 8 mps 725 mmHg 87%
    09:00 -9°C° 0.5 mm 7 mps 726 mmHg 81%
    10:00 -10°C° 0.5 mm 6 mps 726 mmHg 76%
    11:00 -9°C° 0 mm 6 mps 726 mmHg 73%
    12:00 -8°C° 0 mm 5 mps 727 mmHg 71%
    13:00 -8°C° 0 mm 5 mps 727 mmHg 68%
    14:00 -8°C° 0 mm 4 mps 727 mmHg 71%
    15:00 -7°C° 0 mm 3 mps 727 mmHg 74%
    16:00 -4°C° 0 mm 1 mps 727 mmHg 77%
    17:00 -6°C° 0.2 mm 2 mps 726 mmHg 82%
    18:00 -7°C° 0.2 mm 3 mps 726 mmHg 87%
    19:00 -7°C° 0.2 mm 3 mps 725 mmHg 92%
    20:00 -8°C° 0.3 mm 4 mps 725 mmHg 90%
    21:00 -7°C° 0.3 mm 4 mps 724 mmHg 88%
    22:00 -7°C° 0.3 mm 4 mps 723 mmHg 87%
    23:00 -7°C° 0.2 mm 4 mps 723 mmHg 86%

    Day after tomorrow, 22 March, Friday

    Time Temperature Precipitation Wind Pressure Humidity
    00:00 -7°C° 0.2 mm 4 mps 722 mmHg 85%
    01:00 -7°C° 0.2 mm 5 mps 721 mmHg 84%
    02:00 -7°C° 0.1 mm 4 mps 721 mmHg 85%
    03:00 -7°C° 0.1 mm 4 mps 720 mmHg 87%
    04:00 -7°C° 0.1 mm 4 mps 719 mmHg 88%
    05:00 -7°C° 0.1 mm 4 mps 719 mmHg 88%
    06:00 -7°C° 0.1 mm 4 mps 718 mmHg 89%
    07:00 -7°C° 0.1 mm 4 mps 717 mmHg 89%
    08:00 -6°C° 0.3 mm 5 mps 717 mmHg 89%
    09:00 -6°C° 0.3 mm 5 mps 716 mmHg 90%
    10:00 -5°C° 0.3 mm 6 mps 715 mmHg 90%
    11:00 -5°C° 0.4 mm 6 mps 715 mmHg 89%
    12:00 -5°C° 0.4 mm 5 mps 715 mmHg 88%
    13:00 -5°C° 0.4 mm 5 mps 715 mmHg 88%
    14:00 -7°C° 0.9 mm 8 mps 716 mmHg 87%
    15:00 -11°C° 0.9 mm 12 mps 717 mmHg 87%
    16:00 -14°C° 0.9 mm 15 mps 718 mmHg 86%
    17:00 -14°C° 0.1 mm 14 mps 719 mmHg 83%
    18:00 -14°C° 0.1 mm 14 mps 720 mmHg 80%
    19:00 -15°C° 0.1 mm 13 mps 720 mmHg 76%
    20:00 -15°C° 0.1 mm 12 mps 721 mmHg 76%
    21:00 -13°C° 0.1 mm 12 mps 721 mmHg 75%
    22:00 -13°C° 0.1 mm 11 mps 721 mmHg 75%
    23:00 -12°C° 0.2 mm 8 mps 721 mmHg 80%

    23 March, Saturday

    Time Temperature Precipitation Wind Pressure Humidity
    00:00 -11°C° 0.2 mm 6 mps 721 mmHg 86%
    01:00 -9°C° 0.2 mm 3 mps 721 mmHg 91%
    02:00 -8°C° 0.3 mm 3 mps 719 mmHg 92%
    03:00 -9°C° 0.3 mm 4 mps 718 mmHg 93%
    04:00 -9°C° 0.3 mm 4 mps 717 mmHg 93%
    05:00 -9°C° 0.7 mm 4 mps 716 mmHg 92%
    06:00 -9°C° 0.7 mm 4 mps 716 mmHg 92%
    07:00 -7°C° 0.7 mm 3 mps 716 mmHg 91%
    08:00 -8°C° 0.1 mm 4 mps 716 mmHg 83%
    09:00 -7°C° 0.1 mm 4 mps 716 mmHg 75%
    10:00 -7°C° 0.1 mm 5 mps 716 mmHg 67%
    11:00 -7°C° 0.1 mm 4 mps 716 mmHg 72%
    12:00 -6°C° 0.1 mm 3 mps 716 mmHg 78%
    13:00 -4°C° 0.1 mm 1 mps 715 mmHg 84%
    14:00 -6°C° 0.7 mm 2 mps 715 mmHg 85%
    15:00 -7°C° 0.7 mm 3 mps 715 mmHg 87%
    16:00 -8°C° 0.7 mm 4 mps 715 mmHg 88%
    17:00 -9°C° 0.1 mm 4 mps 716 mmHg 83%
    18:00 -8°C° 0.1 mm 3 mps 717 mmHg 78%
    19:00 -8°C° 0.1 mm 2 mps 717 mmHg 74%
    20:00 -9°C° 0.1 mm 3 mps 718 mmHg 75%
    21:00 -10°C° 0.1 mm 3 mps 719 mmHg 77%
    22:00 -10°C° 0.1 mm 3 mps 721 mmHg 78%
    23:00 -12°C° 0.3 mm 5 mps 722 mmHg 83%

    24 March, Sunday

    Time Temperature Precipitation Wind Pressure Humidity
    00:00 -13°C° 0.3 mm 7 mps 724 mmHg 88%
    01:00 -14°C° 0.3 mm 9 mps 726 mmHg 93%
    02:00 -14°C° 0.2 mm 9 mps 728 mmHg 91%
    03:00 -15°C° 0.2 mm 10 mps 730 mmHg 89%
    04:00 -16°C° 0.2 mm 11 mps 732 mmHg 87%
    05:00 -15°C° 0.1 mm 9 mps 734 mmHg 86%
    06:00 -15°C° 0.1 mm 8 mps 736 mmHg 86%
    07:00 -14°C° 0.1 mm 7 mps 737 mmHg 85%
    08:00 -12°C° 0.1 mm 5 mps 739 mmHg 80%
    09:00 -10°C° 0.1 mm 3 mps 740 mmHg 74%
    10:00 -8°C° 0.1 mm 1 mps 741 mmHg 68%
    11:00 -8°C° 0 mm 2 mps 742 mmHg 68%
    12:00 -8°C° 0 mm 2 mps 743 mmHg 69%
    13:00 -8°C° 0 mm 3 mps 744 mmHg 69%
    14:00 -9°C° 0 mm 3 mps 744 mmHg 70%
    15:00 -8°C° 0 mm 2 mps 745 mmHg 71%
    16:00 -8°C° 0 mm 2 mps 745 mmHg 73%
    17:00 -10°C° 0 mm 3 mps 746 mmHg 72%
    18:00 -13°C° 0 mm 3 mps 746 mmHg 72%
    19:00 -14°C° 0 mm 3 mps 746 mmHg 71%
    20:00 -14°C° 0 mm 3 mps 746 mmHg 71%
    21:00 -14°C° 0 mm 3 mps 746 mmHg 72%
    22:00 -14°C° 0 mm 3 mps 746 mmHg 72%
    23:00 -14°C° 0 mm 3 mps 746 mmHg 71%

    25 March, Monday

    Time Temperature Precipitation Wind Pressure Humidity
    00:00 -14°C° 0 mm 3 mps 745 mmHg 70%
    01:00 -13°C° 0 mm 3 mps 745 mmHg 69%
    02:00 -12°C° 0 mm 3 mps 744 mmHg 68%
    03:00 -12°C° 0 mm 4 mps 744 mmHg 66%
    04:00 -11°C° 0 mm 4 mps 743 mmHg 65%
    05:00 -10°C° 0.3 mm 4 mps 743 mmHg 74%
    06:00 -9°C° 0.3 mm 4 mps 743 mmHg 83%
    07:00 -8°C° 0.3 mm 4 mps 742 mmHg 91%
    08:00 -6°C° 0.2 mm 5 mps 742 mmHg 91%
    09:00 -5°C° 0.2 mm 6 mps 742 mmHg 90%
    10:00 -3°C° 0.2 mm 6 mps 742 mmHg 90%
    11:00 -2°C° 0 mm 6 mps 741 mmHg 91%
    12:00 -2°C° 0 mm 6 mps 741 mmHg 92%
    13:00 -1°C° 0 mm 6 mps 740 mmHg 93%
    14:00 -1°C° 0.1 mm 6 mps 740 mmHg 95%
    15:00 -1°C° 0.1 mm 6 mps 739 mmHg 96%
    16:00 +1°C° 0.1 mm 6 mps 739 mmHg 98%
    17:00 0°C° 0.1 mm 7 mps 738 mmHg 98%
    18:00 0°C° 0.1 mm 7 mps 738 mmHg 98%
    19:00 0°C° 0.1 mm 8 mps 737 mmHg 97%
    20:00 0°C° 0.2 mm 8 mps 736 mmHg 97%
    21:00 0°C° 0.2 mm 8 mps 736 mmHg 97%
    22:00 0°C° 0.2 mm 8 mps 735 mmHg 97%
    23:00 0°C° 0.1 mm 9 mps 733 mmHg 97%
    Show more